Location: *
(50.3440°N, 18.6237°E)
Time: 22:30:04
(UTC+00:00)

Envisat - Visible Passes

Search period start: 26 February 2021 00:00
Search period end: 08 March 2021 00:00
Orbit: 764 x 766 km, 98.1° (Epoch: 26 February)

Date Brightness Start Highest point End Pass type
(mag) Time Alt. Az. Time Alt. Az. Time Alt. Az.
26 Feb 6.0 03:07:09 10° NE 03:10:01 15° E 03:12:52 10° ESE visible
26 Feb 3.0 04:44:37 10° NNE 04:49:45 87° WNW 04:54:50 10° SSW visible
27 Feb 4.1 04:07:55 10° NNE 04:12:51 47° E 04:17:44 10° S visible
27 Feb 6.4 17:09:30 10° WSW 17:11:56 13° W 17:14:23 10° WNW visible
28 Feb 5.4 03:31:38 10° NE 03:35:44 24° E 03:39:49 10° SE visible
01 Mar 6.2 02:56:31 10° ENE 02:58:25 12° E 03:00:18 10° ESE visible
01 Mar 3.2 04:33:12 10° NNE 04:38:19 77° ESE 04:43:24 10° S visible
02 Mar 4.6 03:56:35 10° NNE 04:01:21 38° E 04:06:05 10° SSE visible
02 Mar 6.2 16:57:10 10° SW 17:00:21 17° W 17:03:34 10° NW visible
03 Mar 5.7 03:20:30 10° NE 03:24:11 20° E 03:27:50 10° SE visible
04 Mar 3.6 04:21:48 10° NNE 04:26:52 63° ESE 04:31:54 10° S visible
05 Mar 5.0 03:45:19 10° NNE 03:49:51 31° E 03:54:21 10° SSE visible
06 Mar 6.0 03:09:30 10° NE 03:12:37 16° E 03:15:42 10° SE visible
06 Mar 3.0 04:47:10 10° NNE 04:52:17 82° WNW 04:57:22 10° SSW visible
07 Mar 4.0 04:10:26 10° NNE 04:15:24 51° E 04:20:20 10° S visible
07 Mar 6.6 17:12:27 10° WSW 17:14:33 12° W 17:16:37 10° WNW visible
